| time (UTC) | temp C | wind direction | speed KPH | gust KPH | rain 1hr cm | rain 24hr cm | rain mn cm | humidity % | barometer mb |
| 20260506011509 | 26 | 186 | 1.6 | 0.0 | 0.00 | 0.00 | 0.00 | 81 | 1001.3 |
| 20260506010013 | 26 | 166 | 6.4 | 0.0 | 0.00 | 0.00 | 0.00 | 81 | 1000.6 |
| 20260506004511 | 26 | 128 | 8.0 | 0.0 | 0.00 | 0.00 | 0.00 | 80 | 1000.6 |
| 20260506003008 | 26 | 127 | 8.0 | 0.0 | 0.00 | 0.00 | 0.00 | 80 | 1000.6 |
| 20260506001507 | 26 | 112 | 8.0 | 0.0 | 0.00 | 0.00 | 0.00 | 79 | 1000.5 |
| 20260506000006 | 26 | 135 | 8.0 | 0.0 | 0.00 | 0.00 | 0.00 | 79 | 1000.4 |
| 20260505234506 | 27 | 159 | 8.0 | 0.0 | 0.00 | 0.00 | 0.00 | 78 | 1000.5 |
| 20260505233006 | 27 | 145 | 9.7 | 0.0 | 0.00 | 0.00 | 0.00 | 78 | 1000.3 |
| 20260505231504 | 27 | 121 | 9.7 | 0.0 | 0.00 | 0.00 | 0.00 | 77 | 1000.1 |
| 20260505230010 | 28 | 149 | 8.0 | 0.0 | 0.00 | 0.00 | 0.00 | 75 | 1000.0 |
| 20260505224505 | 28 | 121 | 8.0 | 0.0 | 0.00 | 0.00 | 0.00 | 74 | 1000.0 |
| 20260505223005 | 29 | 169 | 9.7 | 0.0 | 0.00 | 0.00 | 0.00 | 73 | 999.8 |
| 20260505221503 | 29 | 138 | 8.0 | 0.0 | 0.00 | 0.00 | 0.00 | 71 | 999.8 |
| 20260505220002 | 30 | 128 | 6.4 | 0.0 | 0.00 | 0.00 | 0.00 | 71 | 999.8 |
| 20260505214502 | 30 | 190 | 8.0 | 0.0 | 0.00 | 0.00 | 0.00 | 70 | 999.7 |
| 20260505213002 | 30 | 190 | 9.7 | 0.0 | 0.00 | 0.00 | 0.00 | 68 | 1000.0 |
| 20260505211502 | 30 | 194 | 9.7 | 0.0 | 0.00 | 0.00 | 0.00 | 69 | 1000.0 |
| 20260505210000 | 30 | 206 | 9.7 | 0.0 | 0.00 | 0.00 | 0.00 | 68 | 1000.2 |
| 20260505204600 | 30 | 190 | 11.3 | 0.0 | 0.00 | 0.00 | 0.00 | 67 | 1000.3 |
| 20260505203120 | 30 | 225 | 9.7 | 0.0 | 0.00 | 0.00 | 0.00 | 68 | 1000.6 |
| 20260505201602 | 29 | 214 | 9.7 | 0.0 | 0.00 | 0.00 | 0.00 | 72 | 1000.6 |
| 20260505200055 | 28 | 195 | 9.7 | 0.0 | 0.00 | 0.00 | 0.00 | 73 | 1000.7 |
| 20260505194550 | 28 | 181 | 11.3 | 0.0 | 0.00 | 0.00 | 0.00 | 74 | 1000.7 |
| 20260505193050 | 28 | 184 | 9.7 | 0.0 | 0.00 | 0.00 | 0.00 | 71 | 1000.8 |
| 20260505191559 | 28 | 230 | 11.3 | 0.0 | 0.00 | 0.00 | 0.00 | 72 | 1000.9 |
| 20260505190047 | 27 | 236 | 14.5 | 0.0 | 0.00 | 0.00 | 0.00 | 75 | 1001.2 |
| 20260505184541 | 27 | 208 | 14.5 | 0.0 | 0.00 | 0.00 | 0.00 | 77 | 1001.3 |
| 20260505183039 | 27 | 146 | 14.5 | 0.0 | 0.00 | 0.00 | 0.00 | 77 | 1001.7 |
| 20260505181543 | 27 | 173 | 11.3 | 0.0 | 0.00 | 0.00 | 0.00 | 75 | 1001.7 |
| 20260505180038 | 26 | 224 | 11.3 | 0.0 | 0.00 | 0.00 | 0.00 | 77 | 1001.8 |
| 20260505174541 | 26 | 209 | 12.9 | 0.0 | 0.00 | 0.00 | 0.00 | 77 | 1001.8 |
| 20260505173032 | 26 | 197 | 14.5 | 0.0 | 0.00 | 0.00 | 0.00 | 78 | 1001.5 |
| 20260505171532 | 26 | 159 | 11.3 | 0.0 | 0.00 | 0.00 | 0.00 | 80 | 1001.6 |
| 20260505170027 | 25 | 175 | 11.3 | 0.0 | 0.00 | 0.00 | 0.00 | 81 | 1001.7 |
| 20260505164527 | 25 | 190 | 14.5 | 0.0 | 0.00 | 0.00 | 0.00 | 81 | 1001.4 |
| 20260505163030 | 25 | 165 | 16.1 | 0.0 | 0.00 | 0.00 | 0.00 | 82 | 1001.4 |
| 20260505161520 | 24 | 192 | 12.9 | 0.0 | 0.00 | 0.00 | 0.00 | 84 | 1001.8 |
| 20260505153015 | 23 | 173 | 12.9 | 0.0 | 0.00 | 0.00 | 0.00 | 84 | 1001.6 |
| 20260505151518 | 23 | 176 | 12.9 | 0.0 | 0.00 | 0.00 | 0.00 | 85 | 1001.3 |
| 20260505124504 | 21 | 167 | 8.0 | 0.0 | 0.00 | 0.00 | 0.00 | 90 | 1000.7 |
| 20260505123004 | 20 | 179 | 8.0 | 0.0 | 0.00 | 0.00 | 0.00 | 90 | 1000.7 |
| 20260505121507 | 20 | 174 | 8.0 | 0.0 | 0.00 | 0.00 | 0.00 | 90 | 1000.3 |
| 20260505120003 | 20 | 165 | 8.0 | 0.0 | 0.00 | 0.00 | 0.00 | 90 | 1000.3 |
| 20260505114504 | 20 | 141 | 9.7 | 0.0 | 0.00 | 0.00 | 0.00 | 90 | 1000.3 |
| 20260505113007 | 20 | 164 | 11.3 | 0.0 | 0.00 | 0.00 | 0.00 | 90 | 1000.3 |
| 20260505111501 | 20 | 163 | 11.3 | 0.0 | 0.00 | 0.00 | 0.00 | 90 | 1000.2 |
| 20260505101558 | 20 | 179 | 11.3 | 0.0 | 0.00 | 0.00 | 0.00 | 89 | 1000.3 |
| 20260505100058 | 21 | 173 | 11.3 | 0.0 | 0.00 | 0.00 | 0.00 | 89 | 1000.2 |
| 20260505094554 | 21 | 159 | 11.3 | 0.0 | 0.00 | 0.00 | 0.00 | 88 | 1000.4 |
| 20260505093050 | 21 | 202 | 11.3 | 0.0 | 0.00 | 0.00 | 0.00 | 88 | 1000.6 |
| 20260505091548 | 21 | 175 | 12.9 | 0.0 | 0.00 | 0.00 | 0.00 | 89 | 1000.5 |
| 20260505090057 | 21 | 180 | 11.3 | 0.0 | 0.00 | 0.00 | 0.00 | 89 | 1000.6 |
| 20260505084550 | 20 | 142 | 11.3 | 0.0 | 0.00 | 0.00 | 0.00 | 89 | 1000.6 |
| 20260505083045 | 20 | 195 | 11.3 | 0.0 | 0.00 | 0.00 | 0.00 | 89 | 1000.5 |
| 20260505081545 | 20 | 169 | 9.7 | 0.0 | 0.00 | 0.00 | 0.00 | 89 | 1000.8 |
| 20260505080042 | 20 | 185 | 9.7 | 0.0 | 0.00 | 0.00 | 0.00 | 89 | 1001.2 |
| 20260505074538 | 20 | 132 | 11.3 | 0.0 | 0.00 | 0.00 | 0.00 | 88 | 1001.2 |
| 20260505073039 | 20 | 146 | 9.7 | 0.0 | 0.00 | 0.00 | 0.00 | 88 | 1001.5 |
| 20260505071533 | 21 | 174 | 9.7 | 0.0 | 0.00 | 0.00 | 0.00 | 87 | 1001.9 |
| 20260505070032 | 21 | 151 | 9.7 | 0.0 | 0.00 | 0.00 | 0.00 | 86 | 1002.0 |
| 20260505064530 | 21 | 132 | 9.7 | 0.0 | 0.00 | 0.00 | 0.00 | 86 | 1002.3 |
| 20260505063028 | 21 | 118 | 9.7 | 0.0 | 0.00 | 0.00 | 0.00 | 85 | 1002.4 |
| 20260505061527 | 21 | 184 | 11.3 | 0.0 | 0.00 | 0.00 | 0.00 | 84 | 1002.5 |
| 20260505060031 | 21 | 147 | 9.7 | 0.0 | 0.00 | 0.00 | 0.00 | 83 | 1002.4 |
| 20260505054533 | 22 | 163 | 11.3 | 0.0 | 0.00 | 0.00 | 0.00 | 82 | 1002.3 |
| 20260505053019 | 22 | 144 | 9.7 | 0.0 | 0.00 | 0.00 | 0.00 | 81 | 1002.5 |
| 20260505051516 | 22 | 186 | 11.3 | 0.0 | 0.00 | 0.00 | 0.00 | 80 | 1002.6 |
| 20260505041512 | 22 | 148 | 9.7 | 0.0 | 0.00 | 0.00 | 0.00 | 78 | 1002.9 |
| 20260505040012 | 22 | 156 | 8.0 | 0.0 | 0.00 | 0.00 | 0.00 | 79 | 1002.9 |
| 20260505034512 | 22 | 137 | 8.0 | 0.0 | 0.00 | 0.00 | 0.00 | 78 | 1002.7 |
| 20260505033018 | 22 | 150 | 9.7 | 0.0 | 0.00 | 0.00 | 0.00 | 77 | 1002.9 |
| 20260505031511 | 22 | 138 | 9.7 | 0.0 | 0.00 | 0.00 | 0.00 | 77 | 1002.9 |
| 20260505030010 | 22 | 112 | 8.0 | 0.0 | 0.00 | 0.00 | 0.00 | 77 | 1003.0 |
| 20260505024510 | 22 | 140 | 8.0 | 0.0 | 0.00 | 0.00 | 0.00 | 77 | 1002.7 |
| 20260505023011 | 22 | 157 | 8.0 | 0.0 | 0.00 | 0.00 | 0.00 | 77 | 1002.6 |
| 20260505021509 | 22 | 148 | 8.0 | 0.0 | 0.00 | 0.00 | 0.00 | 76 | 1002.5 |
| 20260505020009 | 22 | 122 | 8.0 | 0.0 | 0.00 | 0.00 | 0.00 | 75 | 1002.5 |
| 20260505014511 | 23 | 132 | 8.0 | 0.0 | 0.00 | 0.00 | 0.00 | 74 | 1002.6 |
| 20260505013008 | 23 | 158 | 9.7 | 0.0 | 0.00 | 0.00 | 0.00 | 74 | 1002.6 |